Vorticity
nan nan nan nan nan nan nan nan nan nan nan nan nan nan nan nan nan nan nan nan nan nan nan nan nan nan nan nan nan nan nan nan nan nan nan nan nan nan nan nan nan nan nan
nan 7 6 7 8 7 9 9 9 7 7 6 7 6 5 5 5 7 7 4 4 5 7 7 6 6 6 6 5 5 5 6 5 4 5 5 5 5 5 5 5 5 nan
nan 6 6 7 7 8 8 7 8 8 7 7 7 5 6 6 6 6 6 5 2 5 7 7 6 6 6 7 6 5 6 6 5 5 5 5 5 5 6 5 6 6 nan
nan 5 6 7 8 8 7 8 7 7 6 7 6 6 6 7 7 5 7 7 7 5 5 7 7 7 7 7 7 6 6 5 6 6 6 6 6 6 6 6 6 6 nan
nan 5 7 8 8 7 8 7 8 8 7 8 7 7 7 8 6 7 7 7 7 7 7 4 5 5 8 8 7 7 5 6 6 6 6 6 6 6 6 6 7 6 nan
nan 5 7 8 7 7 8 9 8 8 9 7 6 6 7 8 7 8 6 6 6 6 6 5 5 5 6 8 7 5 5 5 5 6 7 7 6 6 7 7 6 7 nan
nan 5 6 7 8 8 8 7 6 6 6 6 4 5 7 8 8 7 7 7 6 6 6 6 6 6 4 5 6 6 4 4 6 7 7 7 7 7 7 7 7 7 nan
nan 7 7 7 6 7 9 8 4 2 8 7 4 8 8 7 9 9 7 8 7 6 7 7 6 7 6 5 5 5 3 4 6 7 6 7 7 7 7 7 7 7 nan
nan 8 7 7 7 7 7 7 5 5 8 7 5 9 10 9 9 10 9 8 8 6 7 8 8 7 7 6 6 4 3 5 6 7 7 7 7 7 7 7 7 7 nan
nan 8 9 8 6 7 9 6 5 6 9 8 6 6 8 12 9 8 10 10 9 9 7 7 8 8 8 7 7 4 3 4 7 7 7 7 8 7 7 7 7 7 nan
nan 9 8 7 6 7 11 8 6 5 6 7 8 8 6 7 9 10 11 10 9 10 9 8 8 9 9 8 7 5 3 4 6 7 7 8 7 7 7 7 7 7 nan
nan 9 8 8 7 9 9 7 7 6 5 6 7 9 8 9 8 8 9 10 11 11 10 9 9 9 9 9 8 3 2 4 6 7 8 8 7 7 8 7 7 7 nan
nan 11 7 6 7 9 8 9 8 7 6 8 7 5 7 9 9 8 8 10 10 9 10 10 11 9 9 9 8 4 3 4 6 7 8 7 7 7 7 7 7 8 nan
nan 11 7 8 9 8 7 7 7 8 7 8 8 6 8 8 8 8 10 7 8 9 9 12 11 10 10 10 8 5 3 4 6 7 7 7 7 7 7 7 8 8 nan
nan 11 10 9 10 9 9 7 8 10 8 7 8 6 7 9 8 8 8 8 9 10 10 10 9 11 9 9 8 6 4 4 6 7 7 7 7 7 8 9 8 6 nan
nan 10 9 8 8 8 9 6 7 11 8 6 9 8 5 9 9 8 8 8 8 9 10 11 9 10 9 8 9 7 5 7 9 7 7 7 7 8 9 9 7 7 nan
nan 10 10 9 8 8 8 7 8 9 8 6 8 9 7 7 8 8 8 8 9 8 9 8 10 10 10 9 8 7 8 10 9 6 5 7 10 10 9 6 6 7 nan
nan 9 9 8 9 8 9 9 7 9 9 7 7 8 7 8 9 8 8 9 7 8 9 10 10 9 9 8 8 8 9 9 8 5 6 10 11 7 5 7 7 9 nan
nan 10 9 9 9 9 8 8 9 9 9 9 10 8 9 7 7 8 8 8 9 9 9 9 9 9 10 9 9 10 9 9 7 7 11 13 7 5 6 8 9 9 nan
nan 10 10 9 10 10 10 10 9 9 10 10 11 10 10 8 7 7 9 8 9 8 8 8 8 9 10 9 7 9 10 7 8 15 15 9 7 10 12 11 10 9 nan
nan 10 10 11 11 9 9 11 11 10 10 10 10 11 10 13 10 3 4 9 7 8 8 8 8 9 10 9 9 9 7 9 14 14 9 7 14 13 13 12 6 6 nan
nan 11 11 11 7 12 16 8 4 8 10 10 10 10 13 14 14 13 6 6 3 2 6 7 9 9 9 10 9 7 8 10 14 7 4 9 12 10 10 8 -1 5 nan
nan 8 9 10 10 14 16 11 2 4 10 9 9 10 10 14 14 14 15 11 10 3 4 9 9 11 11 10 8 9 9 8 6 3 10 13 10 9 9 5 2 10 nan
nan 9 10 9 8 14 16 11 5 4 11 12 11 10 10 11 12 10 12 12 13 12 8 10 11 12 12 11 9 8 8 9 12 13 12 11 8 8 10 9 15 14 nan
nan 10 11 11 8 15 18 11 4 4 11 11 11 11 10 14 16 6 4 8 8 12 14 11 12 12 11 8 9 7 8 10 13 12 10 10 7 12 14 16 19 9 nan
nan nan nan nan nan nan nan nan nan nan nan nan nan nan nan nan nan nan nan nan nan nan nan nan nan nan nan nan nan nan nan nan nan nan nan nan nan nan nan nan nan nan nan
CAPE
0 0 0 0 0 0 0 0 0 0 0 0 0 0 0 0 0 0 0 5 2 2 3 4 2 3 3 4 2 1 1 1 1 2 2 2 2 2 3 3 3 3 4
0 0 0 0 0 0 0 0 0 0 0 0 0 0 0 0 0 0 0 0 0 0 0 0 0 0 1 2 1 0 0 0 1 2 4 4 4 6 6 6 5 5 5
0 0 0 0 0 0 0 0 0 0 0 0 0 0 0 0 0 0 0 0 0 0 0 0 0 0 0 1 0 0 0 0 0 1 2 5 5 8 7 7 7 8 8
0 0 0 0 0 0 0 0 0 0 0 0 0 0 0 0 0 0 0 0 0 0 0 0 0 0 0 0 0 0 0 0 0 0 2 5 7 9 11 10 9 9 10
0 0 0 0 0 0 0 0 0 0 0 0 0 0 0 0 0 0 0 0 0 0 0 0 0 0 0 0 0 0 0 0 0 0 1 4 6 9 12 11 10 10 13
0 0 0 0 0 0 0 0 0 0 0 0 0 0 0 0 0 0 0 0 0 0 0 0 0 0 0 0 0 0 0 0 0 0 1 3 5 9 10 12 12 16 16
0 0 0 0 0 0 0 0 0 0 0 0 0 0 0 0 0 0 0 0 0 0 0 0 0 0 0 0 0 0 0 0 0 0 1 3 3 4 9 13 18 15 12
0 0 0 0 0 0 0 0 0 0 0 0 0 0 0 0 0 0 0 0 0 0 0 0 0 0 0 0 0 0 0 0 0 0 1 2 4 6 10 13 14 14 10
0 0 0 0 0 0 0 0 0 0 0 0 0 0 0 0 0 0 0 0 0 0 0 0 0 0 0 0 0 0 0 0 0 0 0 1 3 4 6 10 8 8 8
0 0 0 0 0 0 0 0 0 0 0 0 0 0 0 0 0 0 0 0 0 0 0 0 0 0 0 0 0 0 0 0 0 0 0 0 2 5 6 5 5 7 6
0 0 0 0 0 0 0 0 0 0 0 0 0 0 0 0 0 0 0 0 0 0 0 0 0 0 0 0 0 0 0 0 0 0 0 0 2 3 2 0 1 3 4
0 0 0 0 0 0 0 0 0 0 0 0 0 0 0 0 0 0 0 0 0 0 0 0 0 0 0 0 0 0 0 0 0 0 0 0 0 0 0 0 0 1 1
0 0 0 0 0 0 0 0 0 0 0 0 0 0 0 0 0 0 0 0 0 0 0 0 0 0 0 0 0 0 0 0 0 0 0 0 0 0 0 0 0 0 0
0 0 0 0 0 0 0 0 0 0 0 0 0 0 0 0 0 0 0 0 0 0 0 0 0 0 0 0 0 0 0 0 0 0 0 0 0 0 0 0 0 0 0
0 0 0 0 0 0 0 0 0 0 0 0 0 0 0 0 0 0 0 0 0 0 0 0 0 0 0 0 0 0 0 0 0 0 0 0 0 0 0 0 0 0 0
0 0 0 0 0 0 0 0 0 0 0 0 0 0 0 0 0 0 0 0 0 0 0 0 0 0 0 0 0 0 0 0 0 0 0 0 0 0 0 0 0 0 0
0 0 0 0 0 0 0 0 0 0 0 0 0 0 0 0 0 0 0 0 0 0 0 0 0 0 0 0 0 0 0 0 0 0 0 0 0 0 0 0 0 0 0
0 0 0 0 0 0 0 0 0 0 0 0 0 0 0 0 0 0 0 0 0 0 0 0 0 0 0 0 0 0 0 0 0 0 0 0 0 0 0 0 0 0 0
0 0 0 0 0 0 0 0 0 0 0 0 0 0 0 0 0 0 0 0 0 0 0 0 0 0 0 0 0 0 0 0 0 0 0 0 0 0 0 0 0 0 0
0 0 0 0 0 0 0 0 0 0 0 0 0 0 0 0 0 0 0 0 0 0 0 0 0 0 0 0 0 0 0 0 0 0 0 0 0 0 0 0 0 0 0
0 0 0 0 0 0 0 0 0 0 0 0 0 0 0 0 0 0 0 0 0 0 0 0 0 0 0 0 0 0 0 0 0 0 0 0 0 0 0 0 0 0 0
0 0 0 0 0 0 0 0 0 0 0 0 0 0 0 0 0 0 0 0 0 0 0 0 0 0 0 0 0 0 0 0 0 0 0 0 0 0 0 0 0 0 0
0 0 0 0 0 0 0 0 0 0 0 0 0 0 0 0 0 0 0 0 0 0 0 0 0 0 0 0 0 0 0 0 0 0 0 0 0 0 0 0 0 0 0
0 0 0 0 0 0 0 0 0 0 0 0 0 0 0 0 0 0 0 0 0 0 0 0 0 0 0 0 0 0 0 0 0 0 0 0 0 0 0 0 0 0 0
0 0 0 0 0 0 0 0 0 0 0 0 0 0 0 0 0 0 0 0 0 0 0 0 0 0 0 0 0 0 0 0 0 0 0 0 0 0 0 0 0 0 0
0 0 0 0 0 0 0 0 0 0 0 0 0 0 0 0 0 0 0 0 0 0 0 0 0 0 0 0 0 0 0 0 0 0 0 0 0 1 1 0 0 0 0